Historia de Miami, FL

Domingo, Enero 15, 2017 — View Current Conditions

Jump to Data:

Date:
Airport Code:
Recently Viewed Airport Codes: KMIA
Daily Summary
  Actual Average Record
Temperature
Temperatura media 76° F / 24° C 68° F / 20° C  
Temperatura máxima 83° F / 28° C 76° F / 24° C 83° F / 28° C (1957)
Temperatura mínima 69° F / 21° C 60° F / 16° C 34° F / 1° C (1948)
Degree Days
Grados día de calefacción 0 2  
Month to date heating degree days 6 30  
Since 1 July heating degree days 6 67  
Cooling Degree Days 11 5  
Month to date cooling degree days 136 75  
Year to date cooling degree days 136 75  
Growing Degree Days 26 (Base 50)    
Moisture
Punto de rocío 61° F / 16° C    
Average Humidity 61    
Maximum Humidity 78    
Minimum Humidity 43    
Precipitación
Precipitación T pul / T cm 0.04 pul / 1.02 cm 1.48 pul / 3.76 cm (2016)
Month to date precipitation 1.54 0.75  
Year to date precipitation 1.54 0.75  
Nieve
Nieve 0.00 pul / 0.00 cm pul / cm pul / cm ()
Month to date snowfall 0.0  
Since 1 July snowfall 0.0  
Grosos de nieve 0.00 pul / 0.00 cm    
Presión al nivel del mar
Presión al nivel del mar 30.22 pul / 1023 hPa    
Viento
Velocidad del viento 10 mph / 16 km/h (Este)    
Velocidad máxima del viento 20 mph / 32 km/h    
Max Gust Speed 24 mph / 39 km/h    
Visibilidad 10 Millas / 16 Kilómetros    
Eventos Lluvia    
T = Trace of Precipitation, MM = Missing Value Source: NWS Daily Summary

Mostrar METARS completo

(help) - Comma Delimited File

Hourly Observations

Hora(EST) Temperatura Punto de rocío Humedad Presión al nivel del mar Visibilidad Dirección del viento Velocidad del viento Velocidad de ráfagas Precipitación Eventos Condiciones
12:53 AM 73.0° F / 22.8° C 64.0° F / 17.8° C 73% 30.27 pul / 1025.0 hPa 10.0 Millas / 16.1 Kilómetros ENE 11.5 mph / 18.5 km/h - 0.00 pul / 0.0 cm   Muy nublado
1:53 AM 72.0° F / 22.2° C 63.0° F / 17.2° C 73% 30.25 pul / 1024.4 hPa 10.0 Millas / 16.1 Kilómetros Este 4.6 mph / 7.4 km/h - N/A   Muy nublado
2:53 AM 73.9° F / 23.3° C 63.0° F / 17.2° C 68% 30.24 pul / 1024.0 hPa 10.0 Millas / 16.1 Kilómetros NNE 4.6 mph / 7.4 km/h - N/A   Muy nublado
3:53 AM 73.9° F / 23.3° C 57.0° F / 13.9° C 55% 30.23 pul / 1023.6 hPa 10.0 Millas / 16.1 Kilómetros Este 10.4 mph / 16.7 km/h - N/A   Muy nublado
4:53 AM 70.0° F / 21.1° C 55.9° F / 13.3° C 61% 30.22 pul / 1023.3 hPa 10.0 Millas / 16.1 Kilómetros Sin viento Sin viento - N/A   Nubes dispersas
5:53 AM 71.1° F / 21.7° C 59.0° F / 15.0° C 66% 30.23 pul / 1023.6 hPa 10.0 Millas / 16.1 Kilómetros Sin viento Sin viento - N/A   Muy nublado
6:41 AM 72.0° F / 22.2° C 62.1° F / 16.7° C 71% 30.24 pul / 1023.9 hPa 10.0 Millas / 16.1 Kilómetros Sin viento Sin viento - 0.00 pul / 0.0 cm Lluvia Lluvia débil
6:53 AM 70.0° F / 21.1° C 62.1° F / 16.7° C 76% 30.24 pul / 1023.8 hPa 10.0 Millas / 16.1 Kilómetros Sin viento Sin viento - 0.00 pul / 0.0 cm   Muy nublado
7:39 AM 73.9° F / 23.3° C 64.0° F / 17.8° C 71% 30.25 pul / 1024.3 hPa 10.0 Millas / 16.1 Kilómetros ESE 8.1 mph / 13.0 km/h - N/A   Muy nublado
7:53 AM 73.9° F / 23.3° C 64.9° F / 18.3° C 73% 30.25 pul / 1024.4 hPa 10.0 Millas / 16.1 Kilómetros Este 4.6 mph / 7.4 km/h - N/A   Muy nublado
8:53 AM 77.0° F / 25.0° C 63.0° F / 17.2° C 62% 30.27 pul / 1025.0 hPa 10.0 Millas / 16.1 Kilómetros Este 10.4 mph / 16.7 km/h - N/A   Muy nublado
9:53 AM 77.0° F / 25.0° C 61.0° F / 16.1° C 58% 30.28 pul / 1025.2 hPa 10.0 Millas / 16.1 Kilómetros Este 13.8 mph / 22.2 km/h - N/A   Nublado
10:53 AM 78.1° F / 25.6° C 63.0° F / 17.2° C 60% 30.27 pul / 1025.0 hPa 10.0 Millas / 16.1 Kilómetros Este 10.4 mph / 16.7 km/h - N/A   Nublado
11:53 AM 80.1° F / 26.7° C 57.0° F / 13.9° C 45% 30.24 pul / 1023.9 hPa 10.0 Millas / 16.1 Kilómetros ESE 12.7 mph / 20.4 km/h 20.7 mph / 33.3 km/h N/A   Nublado
12:53 PM 82.0° F / 27.8° C 57.9° F / 14.4° C 44% 30.21 pul / 1022.8 hPa 10.0 Millas / 16.1 Kilómetros Este 11.5 mph / 18.5 km/h - N/A   Muy nublado
1:53 PM 80.1° F / 26.7° C 60.1° F / 15.6° C 50% 30.19 pul / 1022.2 hPa 10.0 Millas / 16.1 Kilómetros Este 12.7 mph / 20.4 km/h - N/A   Muy nublado
2:53 PM 80.1° F / 26.7° C 59.0° F / 15.0° C 48% 30.18 pul / 1021.8 hPa 10.0 Millas / 16.1 Kilómetros Este 11.5 mph / 18.5 km/h - N/A   Muy nublado
3:53 PM 78.1° F / 25.6° C 59.0° F / 15.0° C 52% 30.17 pul / 1021.6 hPa 10.0 Millas / 16.1 Kilómetros Este 15.0 mph / 24.1 km/h - N/A   Muy nublado
4:53 PM 78.1° F / 25.6° C 59.0° F / 15.0° C 52% 30.18 pul / 1022.0 hPa 10.0 Millas / 16.1 Kilómetros Este 12.7 mph / 20.4 km/h - N/A   Muy nublado
5:53 PM 77.0° F / 25.0° C 59.0° F / 15.0° C 54% 30.18 pul / 1022.0 hPa 10.0 Millas / 16.1 Kilómetros Este 13.8 mph / 22.2 km/h - N/A   Muy nublado
6:53 PM 75.9° F / 24.4° C 62.1° F / 16.7° C 62% 30.19 pul / 1022.4 hPa 10.0 Millas / 16.1 Kilómetros Este 11.5 mph / 18.5 km/h - N/A   Muy nublado
7:53 PM 75.9° F / 24.4° C 62.1° F / 16.7° C 62% 30.21 pul / 1022.9 hPa 10.0 Millas / 16.1 Kilómetros Este 13.8 mph / 22.2 km/h - N/A   Muy nublado
8:53 PM 75.9° F / 24.4° C 63.0° F / 17.2° C 64% 30.21 pul / 1022.9 hPa 10.0 Millas / 16.1 Kilómetros Este 13.8 mph / 22.2 km/h - N/A   Muy nublado
9:53 PM 75.9° F / 24.4° C 63.0° F / 17.2° C 64% 30.22 pul / 1023.1 hPa 10.0 Millas / 16.1 Kilómetros Este 11.5 mph / 18.5 km/h - N/A   Muy nublado
10:53 PM 77.0° F / 25.0° C 63.0° F / 17.2° C 62% 30.21 pul / 1023.0 hPa 10.0 Millas / 16.1 Kilómetros Este 16.1 mph / 25.9 km/h - N/A   Nublado
11:53 PM 75.0° F / 23.9° C 62.1° F / 16.7° C 64% 30.21 pul / 1022.8 hPa 10.0 Millas / 16.1 Kilómetros Este 15.0 mph / 24.1 km/h - N/A   Muy nublado